JH0FOG-13 Weather Reports


time (UTC)temp
C
wind
direction
speed
KPH
gust
KPH
rain 1hr
cm
rain 24hr
cm
rain mn
cm
humidity
%
barometer
mb
20260504204001 8 0 0.0 0.0 0.00 1.75 0.00 92 1019.1
20260504202001 6 0 0.0 0.0 0.00 1.98 0.00 93 1018.9
20260504200001 6 0 0.0 0.0 0.00 2.26 0.00 92 1018.8
20260504194001 6 0 0.0 0.0 0.00 2.62 0.00 92 1018.3
20260504192001 7 209 0.0 1.6 0.00 3.07 0.00 92 1017.7
20260504190001 7 0 0.0 0.0 0.00 3.30 0.00 91 1017.6
20260504184001 7 0 0.0 0.0 0.00 3.33 0.00 91 1017.1
20260504182001 8 0 0.0 0.0 0.00 3.33 0.00 90 1017.0
20260504180001 8 0 0.0 0.0 0.00 3.33 0.00 89 1016.7
20260504174001 9 0 0.0 0.0 0.00 3.35 0.00 88 1016.7
20260504172001 9 0 0.0 0.0 0.00 3.38 0.00 88 1016.5
20260504082002 13 332 4.8 17.7 0.00 4.04 3.12 84 1006.6
20260504050001 15 347 3.2 14.5 0.00 4.04 3.12 84 1002.8
20260504044001 15 9 3.2 14.5 0.00 4.04 3.12 85 1002.4
20260504042001 14 4 1.6 12.9 0.03 4.04 3.12 87 1002.4
20260504040001 14 112 1.6 4.8 0.03 4.04 3.12 87 1002.1
20260504034001 14 134 1.6 8.0 0.08 4.04 3.12 88 1002.1
20260504032002 14 131 1.6 4.8 0.05 4.01 3.10 89 1002.0
20260504030002 14 125 1.6 8.0 0.08 4.01 3.10 89 1001.8
20260504024002 14 330 1.6 6.4 0.03 3.96 3.05 91 1002.0
20260504022002 14 115 0.0 4.8 0.08 3.96 3.05 92 1002.2
20260504020002 13 336 0.0 3.2 0.18 3.94 3.02 92 1002.2
20260504014002 14 148 0.0 6.4 0.46 3.94 3.02 92 1001.8
20260504012002 14 21 0.0 3.2 0.46 3.89 2.97 92 1002.2
20260504010002 14 89 0.0 8.0 0.33 3.76 2.84 91 1002.2
20260504004002 15 212 0.0 3.2 0.05 3.48 2.57 88 1002.2
20260504002002 15 129 1.6 6.4 0.00 3.43 2.51 88 1001.8
20260504000002 15 1 0.0 6.4 0.03 3.43 2.51 88 1001.7
20260503234002 15 107 0.0 3.2 0.08 3.43 2.51 89 1001.7
20260503232002 15 165 1.6 8.0 0.08 3.43 2.51 89 1001.7
20260503230002 15 119 1.6 6.4 0.05 3.40 2.49 88 1001.6
20260503224002 15 18 3.2 9.7 0.00 3.35 2.44 87 1001.6
20260503222002 15 67 1.6 20.9 0.03 3.35 2.44 89 1001.4
20260503220002 14 96 1.6 8.0 0.20 3.35 2.44 92 1001.1
20260503214002 14 126 1.6 9.7 0.51 3.35 2.44 93 1000.8
20260503212002 14 75 3.2 17.7 0.71 3.33 2.41 93 1000.7
20260503210002 15 130 3.2 8.0 0.81 3.15 2.24 93 1000.5